Kogalniceanu, Romania

7:51 AM EEST on September 28, 2016 (GMT +0300)
M. Kogalniceanu

Weather History for LRCK - August, 2013

Change the Weather History Date:

Saturday, August 24, 2013

  Actual Average Record
Temperature  
Mean Temperature 76 °F -  
Max Temperature 84 °F 81 °F 98 °F (2007)
Min Temperature 68 °F 60 °F 53 °F (1998)
Cooling Degree Days 11    
Growing Degree Days 26 (Base 50)    
Moisture  
Dew Point 53 °F    
Average Humidity 48    
Maximum Humidity 73    
Minimum Humidity 32    
Precipitation  
Precipitation 0.00 in - - ()
Sea Level Pressure  
Sea Level Pressure 29.97 in    
Wind  
Wind Speed 9 mph ()    
Max Wind Speed 14 mph    
Max Gust Speed -    
Averages and records for this station are not official NWS values.
T = Trace of Precipitation, MM = Missing Value Source: Averaged Metar Reports

Daily Weather History Graph

Daily Weather History Graph

Search for Another Location

Airport or City:

Trip Planner

Search our weather history database for the weather conditions in past years. The results will help you decide how hot, cold, wet, or windy it might be!

Date:

Astronomy

Aug. 24, 2013 Rise Set
Actual Time 6:19 AM EEST 7:56 PM EEST
Civil Twilight 5:49 AM EEST 8:27 PM EEST
Nautical Twilight 5:11 AM EEST 9:04 PM EEST
Astronomical Twilight 4:31 AM EEST 9:43 PM EEST
Moon 9:27 PM EEST (8/24) 10:09 AM EEST (8/24)
Length of Visible Light 14h 38m
Length of Day
13h 36m
Waning Gibbous, 86% of the Moon is Illuminated
Aug 24
Waning Gibbous
Aug 28
Last Quarter
Sep 5
New
Sep 12
First Quarter
Sep 19
Full

Hourly Weather History & Observations

Time (EEST) Temp. Heat Index Dew Point Humidity Pressure Visibility Wind Dir Wind Speed Gust Speed Precip Events Conditions
12:00 AM 73.4 °F - 51.8 °F 47% 29.98 in - North 8.1 mph - N/A   Clear
12:30 AM 73.4 °F - 50.0 °F 44% 29.98 in - North 6.9 mph - N/A   Clear
1:00 AM 71.6 °F - 51.8 °F 50% 29.98 in - North 8.1 mph - N/A   Clear
1:30 AM 71.6 °F - 51.8 °F 50% 29.98 in - North 9.2 mph - N/A   Clear
2:00 AM 71.6 °F - 51.8 °F 50% 29.98 in - North 11.5 mph - N/A   Clear
2:30 AM 71.6 °F - 51.8 °F 50% 29.98 in - North 11.5 mph - N/A   Clear
3:00 AM 71.6 °F - 51.8 °F 50% 29.98 in - North 10.4 mph - N/A   Clear
3:30 AM 69.8 °F - 50.0 °F 49% 29.98 in - North 10.4 mph - N/A   Clear
4:00 AM 69.8 °F - 50.0 °F 49% 29.98 in - NNE 12.7 mph - N/A   Clear
4:30 AM 69.8 °F - 50.0 °F 49% 29.98 in - North 13.8 mph - N/A   Clear
5:00 AM 68.0 °F - 50.0 °F 52% 29.98 in - North 12.7 mph - N/A   Clear
5:30 AM 68.0 °F - 48.2 °F 49% 29.98 in - North 11.5 mph - N/A   Clear
6:00 AM 68.0 °F - 48.2 °F 49% 29.98 in - North 12.7 mph - N/A   Clear
6:30 AM 68.0 °F - 48.2 °F 49% 29.98 in - North 13.8 mph - N/A   Clear
7:00 AM 68.0 °F - 48.2 °F 49% 29.98 in - North 11.5 mph - N/A   Clear
7:30 AM 68.0 °F - 48.2 °F 49% 29.98 in - NNE 13.8 mph - N/A   Clear
8:00 AM 69.8 °F - 48.2 °F 46% 29.98 in - NNE 13.8 mph - N/A   Clear
8:30 AM 71.6 °F - 48.2 °F 43% 29.98 in - NNE 13.8 mph - N/A   Clear
9:00 AM 73.4 °F - 48.2 °F 41% 29.98 in - NNE 13.8 mph - N/A   Clear
9:30 AM 75.2 °F - 48.2 °F 38% 29.98 in - NNE 12.7 mph - N/A   Clear
10:00 AM 77.0 °F - 48.2 °F 36% 30.01 in - NE 11.5 mph - N/A   Clear
10:30 AM 78.8 °F - 48.2 °F 34% 30.01 in - NNE 10.4 mph - N/A   Clear
11:00 AM 78.8 °F - 50.0 °F 36% 29.98 in - NNE 9.2 mph - N/A   Clear
11:30 AM 80.6 °F - 50.0 °F 34% 29.98 in - NE 8.1 mph - N/A   Clear
12:00 PM 82.4 °F - 50.0 °F 32% 29.98 in - NE 5.8 mph - N/A   Clear
12:30 PM 82.4 °F - 50.0 °F 32% 29.98 in - Variable 3.5 mph - N/A   Clear
1:00 PM 82.4 °F - 51.8 °F 35% 29.98 in - Variable 6.9 mph - N/A   Clear
1:30 PM 84.2 °F - 51.8 °F 33% 29.98 in - Variable 5.8 mph - N/A   Clear
2:00 PM 84.2 °F - 51.8 °F 33% 29.98 in - NE 5.8 mph - N/A   Clear
2:30 PM 84.2 °F - 51.8 °F 33% 29.98 in - ENE 11.5 mph - N/A   Clear
3:00 PM 84.2 °F 82.8 °F 53.6 °F 35% 29.95 in - East 11.5 mph - N/A   Clear
3:30 PM 84.2 °F 83.0 °F 55.4 °F 37% 29.95 in - East 10.4 mph - N/A   Clear
4:00 PM 82.4 °F 81.7 °F 55.4 °F 39% 29.95 in - East 10.4 mph - N/A   Clear
4:30 PM 82.4 °F 82.0 °F 57.2 °F 42% 29.95 in - East 9.2 mph - N/A   Clear
5:00 PM 82.4 °F 82.0 °F 57.2 °F 42% 29.95 in - East 9.2 mph - N/A   Clear
5:30 PM 80.6 °F 80.8 °F 57.2 °F 45% 29.95 in - East 9.2 mph - N/A   Clear
6:00 PM 80.6 °F 80.8 °F 57.2 °F 45% 29.95 in - East 8.1 mph - N/A   Clear
6:30 PM 78.8 °F - 59.0 °F 51% 29.95 in - East 9.2 mph - N/A   Clear
7:00 PM 77.0 °F - 59.0 °F 54% 29.95 in - East 9.2 mph - N/A   Clear
7:30 PM 73.4 °F - 59.0 °F 61% 29.95 in - ESE 8.1 mph - N/A   Clear
8:00 PM 73.4 °F - 59.0 °F 61% 29.95 in - SE 6.9 mph - N/A   Clear
8:30 PM 71.6 °F - 59.0 °F 64% 29.95 in - SE 3.5 mph - N/A   Clear
9:00 PM 71.6 °F - 59.0 °F 64% 29.95 in - SE 4.6 mph - N/A   Clear
9:30 PM 69.8 °F - 59.0 °F 68% 29.95 in - ESE 4.6 mph - N/A   Clear
10:00 PM 69.8 °F - 59.0 °F 68% 29.95 in - SE 3.5 mph - N/A   Clear
10:30 PM 68.0 °F - 59.0 °F 73% 29.95 in - South 4.6 mph - N/A   Clear
11:00 PM 68.0 °F - 57.2 °F 68% 29.95 in - South 5.8 mph - N/A   Clear
11:30 PM 68.0 °F - 59.0 °F 73% 29.95 in - South 3.5 mph - N/A   Clear